Location: ???????
(55.4362°N, 38.1183°E)
Time: 02:12:47
(UTC+00:00)

METEOR M2 - Pass Details

Date: 05 December 2021
Orbit: 818 x 827 km, 98.4° (Epoch: 28 January)

Event Time Altitude Azimuth Distance (km) Brightness Sun altitude
Rises 15:39:19 0° 163° (SSE) 3,357 ? -21.3°
Reaches altitude 10° 15:41:40 10° 164° (SSE) 2,427 ? -21.6°
Maximum altitude 15:47:04 86° 253° (WSW) 836 ? -22.3°
Drops below altitude 10° 15:52:29 10° 344° (NNW) 2,439 ? -23.1°
Sets 15:54:51 0° 344° (NNW) 3,374 ? -23.4°
